• In Hungary
  • List of Countries
  • For 7 days
  • Water Temperature
  • Satellite Maps
  • Weather Map
  • News
  • Weather Widgets
  • user-avatar
    Login

    Hourly Weather Slavnovichi

    Today, 13 December, Wednesday

    Time Temperature Precipitation Wind Pressure Humidity
    00:00 0°C° 0 mm 4 mps 738 mmHg 98%
    01:00 0°C° 0 mm 4 mps 738 mmHg 98%
    02:00 0°C° 0 mm 4 mps 739 mmHg 99%
    03:00 0°C° 0 mm 4 mps 739 mmHg 98%
    04:00 0°C° 0 mm 4 mps 739 mmHg 98%
    05:00 0°C° 0 mm 4 mps 740 mmHg 98%
    06:00 0°C° 0 mm 4 mps 740 mmHg 96%
    07:00 -1°C° 0 mm 4 mps 740 mmHg 94%
    08:00 -1°C° 0 mm 4 mps 741 mmHg 91%
    09:00 -1°C° 0 mm 4 mps 741 mmHg 91%
    10:00 -1°C° 0 mm 4 mps 742 mmHg 90%
    11:00 -1°C° 0 mm 4 mps 742 mmHg 90%
    12:00 -1°C° 0 mm 4 mps 742 mmHg 90%
    13:00 -1°C° 0 mm 4 mps 742 mmHg 90%
    14:00 0°C° 0 mm 3 mps 743 mmHg 90%
    15:00 -1°C° 0 mm 3 mps 743 mmHg 91%
    16:00 -2°C° 0 mm 3 mps 743 mmHg 92%
    17:00 -2°C° 0 mm 2 mps 743 mmHg 93%
    18:00 -3°C° 0 mm 2 mps 743 mmHg 93%
    19:00 -4°C° 0 mm 2 mps 744 mmHg 93%
    20:00 -2°C° 0 mm 1 mps 744 mmHg 93%
    21:00 -3°C° 0 mm 1 mps 744 mmHg 93%
    22:00 -3°C° 0 mm 1 mps 743 mmHg 93%
    23:00 -5°C° 0 mm 0 mps 743 mmHg 92%

    Tomorrow, 14 December, Thursday

    Time Temperature Precipitation Wind Pressure Humidity
    00:00 -4°C° 0 mm 1 mps 743 mmHg 92%
    01:00 -4°C° 0 mm 1 mps 743 mmHg 91%
    02:00 -3°C° 0 mm 1 mps 743 mmHg 91%
    03:00 -4°C° 0 mm 1 mps 742 mmHg 91%
    04:00 -4°C° 0 mm 1 mps 742 mmHg 90%
    05:00 -4°C° 0 mm 1 mps 741 mmHg 90%
    06:00 -4°C° 0 mm 1 mps 741 mmHg 91%
    07:00 -4°C° 0 mm 1 mps 741 mmHg 91%
    08:00 -6°C° 0 mm 2 mps 740 mmHg 92%
    09:00 -6°C° 0 mm 2 mps 740 mmHg 92%
    10:00 -5°C° 0 mm 2 mps 739 mmHg 93%
    11:00 -4°C° 0 mm 2 mps 739 mmHg 94%
    12:00 -4°C° 0 mm 2 mps 739 mmHg 94%
    13:00 -4°C° 0 mm 2 mps 738 mmHg 94%
    14:00 -3°C° 0 mm 2 mps 737 mmHg 94%
    15:00 -4°C° 0 mm 2 mps 737 mmHg 94%
    16:00 -5°C° 0 mm 3 mps 737 mmHg 94%
    17:00 -5°C° 0 mm 3 mps 736 mmHg 95%
    18:00 -5°C° 0 mm 4 mps 736 mmHg 95%
    19:00 -5°C° 0 mm 5 mps 736 mmHg 95%
    20:00 -5°C° 0 mm 5 mps 735 mmHg 95%
    21:00 -4°C° 0.1 mm 6 mps 735 mmHg 94%
    22:00 -4°C° 0.1 mm 6 mps 734 mmHg 93%
    23:00 -3°C° 0.1 mm 7 mps 734 mmHg 92%

    Day after tomorrow, 15 December, Friday

    Time Temperature Precipitation Wind Pressure Humidity
    00:00 -3°C° 0.1 mm 7 mps 734 mmHg 92%
    01:00 -3°C° 0.1 mm 6 mps 734 mmHg 91%
    02:00 -2°C° 0.1 mm 6 mps 735 mmHg 91%
    03:00 -2°C° 0 mm 6 mps 735 mmHg 91%
    04:00 -3°C° 0 mm 6 mps 735 mmHg 91%
    05:00 -3°C° 0 mm 6 mps 735 mmHg 90%
    06:00 -3°C° 0 mm 6 mps 735 mmHg 90%
    07:00 -4°C° 0 mm 5 mps 736 mmHg 90%
    08:00 -4°C° 0 mm 5 mps 736 mmHg 90%
    09:00 -4°C° 0 mm 5 mps 737 mmHg 90%
    10:00 -4°C° 0 mm 5 mps 737 mmHg 90%
    11:00 -4°C° 0 mm 5 mps 738 mmHg 89%
    12:00 -2°C° 0 mm 5 mps 738 mmHg 89%
    13:00 -2°C° 0 mm 5 mps 738 mmHg 88%
    14:00 -2°C° 0 mm 4 mps 738 mmHg 87%
    15:00 -2°C° 0 mm 5 mps 737 mmHg 86%
    16:00 -3°C° 0 mm 6 mps 737 mmHg 86%
    17:00 -3°C° 0 mm 6 mps 736 mmHg 85%
    18:00 -2°C° 0.1 mm 7 mps 735 mmHg 88%
    19:00 -2°C° 0.1 mm 7 mps 735 mmHg 90%
    20:00 -1°C° 0.1 mm 7 mps 734 mmHg 92%
    21:00 -1°C° 0.7 mm 8 mps 733 mmHg 93%
    22:00 -1°C° 0.7 mm 8 mps 732 mmHg 94%
    23:00 -1°C° 0.7 mm 8 mps 731 mmHg 96%

    16 December, Saturday

    Time Temperature Precipitation Wind Pressure Humidity
    00:00 -1°C° 1 mm 8 mps 731 mmHg 96%
    01:00 0°C° 1 mm 8 mps 731 mmHg 97%
    02:00 0°C° 1 mm 8 mps 731 mmHg 97%
    03:00 -1°C° 0 mm 7 mps 731 mmHg 95%
    04:00 -1°C° 0 mm 7 mps 732 mmHg 92%
    05:00 -2°C° 0 mm 6 mps 732 mmHg 90%
    06:00 -2°C° 0 mm 6 mps 733 mmHg 89%
    07:00 -2°C° 0 mm 6 mps 734 mmHg 89%
    08:00 -3°C° 0 mm 6 mps 735 mmHg 89%
    09:00 -2°C° 0 mm 5 mps 735 mmHg 90%
    10:00 -2°C° 0 mm 5 mps 736 mmHg 91%
    11:00 -2°C° 0 mm 4 mps 736 mmHg 92%
    12:00 -1°C° 0 mm 3 mps 736 mmHg 93%
    13:00 -1°C° 0 mm 3 mps 737 mmHg 94%
    14:00 -1°C° 0 mm 2 mps 737 mmHg 95%
    15:00 -1°C° 0 mm 2 mps 737 mmHg 95%
    16:00 -2°C° 0 mm 2 mps 738 mmHg 95%
    17:00 -2°C° 0 mm 2 mps 738 mmHg 95%
    18:00 -2°C° 0 mm 2 mps 738 mmHg 95%
    19:00 -2°C° 0 mm 2 mps 739 mmHg 95%
    20:00 -2°C° 0 mm 2 mps 739 mmHg 94%
    21:00 -2°C° 0 mm 2 mps 740 mmHg 94%
    22:00 -3°C° 0 mm 2 mps 740 mmHg 94%
    23:00 -3°C° 0 mm 2 mps 741 mmHg 94%

    17 December, Sunday

    Time Temperature Precipitation Wind Pressure Humidity
    00:00 -3°C° 0 mm 2 mps 741 mmHg 94%
    01:00 -4°C° 0 mm 2 mps 741 mmHg 94%
    02:00 -4°C° 0 mm 2 mps 742 mmHg 93%
    03:00 -4°C° 0 mm 2 mps 742 mmHg 93%
    04:00 -4°C° 0 mm 2 mps 742 mmHg 93%
    05:00 -4°C° 0 mm 2 mps 742 mmHg 93%
    06:00 -2°C° 0 mm 1 mps 743 mmHg 93%
    07:00 -2°C° 0 mm 1 mps 743 mmHg 93%
    08:00 -2°C° 0 mm 1 mps 744 mmHg 92%
    09:00 -2°C° 0 mm 1 mps 744 mmHg 92%
    10:00 -1°C° 0 mm 1 mps 744 mmHg 92%
    11:00 -1°C° 0 mm 1 mps 744 mmHg 91%
    12:00 -2°C° 0 mm 0 mps 744 mmHg 91%
    13:00 -2°C° 0 mm 0 mps 744 mmHg 91%
    14:00 -2°C° 0 mm 0 mps 744 mmHg 90%
    15:00 -1°C° 0 mm 1 mps 745 mmHg 90%
    16:00 -1°C° 0 mm 1 mps 745 mmHg 90%
    17:00 -2°C° 0 mm 1 mps 745 mmHg 90%
    18:00 -2°C° 0 mm 1 mps 745 mmHg 90%
    19:00 -4°C° 0 mm 2 mps 745 mmHg 91%
    20:00 -4°C° 0 mm 2 mps 745 mmHg 91%
    21:00 -4°C° 0 mm 2 mps 745 mmHg 91%
    22:00 -5°C° 0 mm 3 mps 745 mmHg 91%
    23:00 -5°C° 0 mm 3 mps 745 mmHg 91%

    18 December, Monday

    Time Temperature Precipitation Wind Pressure Humidity
    00:00 -5°C° 0 mm 3 mps 745 mmHg 91%
    01:00 -4°C° 0 mm 4 mps 745 mmHg 91%
    02:00 -4°C° 0 mm 4 mps 745 mmHg 91%
    03:00 -5°C° 0 mm 5 mps 745 mmHg 91%
    04:00 -5°C° 0 mm 5 mps 745 mmHg 91%
    05:00 -5°C° 0 mm 5 mps 745 mmHg 91%
    06:00 -5°C° 0 mm 5 mps 745 mmHg 91%
    07:00 -5°C° 0 mm 5 mps 745 mmHg 91%
    08:00 -5°C° 0 mm 5 mps 745 mmHg 90%
    09:00 -5°C° 0.1 mm 6 mps 745 mmHg 90%
    10:00 -5°C° 0.1 mm 6 mps 745 mmHg 90%
    11:00 -5°C° 0.1 mm 6 mps 745 mmHg 90%
    12:00 -5°C° 0.1 mm 6 mps 745 mmHg 89%
    13:00 -5°C° 0.1 mm 6 mps 745 mmHg 89%
    14:00 -5°C° 0.1 mm 6 mps 745 mmHg 89%
    15:00 -5°C° 0.3 mm 6 mps 745 mmHg 89%
    16:00 -5°C° 0.3 mm 6 mps 745 mmHg 90%
    17:00 -5°C° 0.3 mm 6 mps 746 mmHg 90%
    18:00 -6°C° 0.4 mm 6 mps 746 mmHg 90%
    19:00 -6°C° 0.4 mm 6 mps 746 mmHg 91%
    20:00 -6°C° 0.4 mm 5 mps 746 mmHg 92%
    21:00 -6°C° 0.4 mm 5 mps 746 mmHg 92%
    22:00 -6°C° 0.4 mm 5 mps 747 mmHg 92%
    23:00 -6°C° 0.4 mm 5 mps 747 mmHg 93%
    Show more